This is the latest recevied weather packets stored in our database for station/object KF4UQS-14. If no packets are shown the sender has not sent any weather packets the latest 10 day(s).
| Time | Temp. | Humidity | Pressure | Rain* | Wind** | Luminosity | Snow |
|---|---|---|---|---|---|---|---|
| 1778186688 | 11.11° C | 95% | 1009.9 hPa | 1.78 mm | - | 64 W/m² | - |
| 1778186386 | 11.11° C | 95% | 1009.8 hPa | 1.78 mm | - | 76 W/m² | - |
| 1778186083 | 11.11° C | 95% | 1009.5 hPa | 1.27 mm | - | 165 W/m² | - |
| 1778185779 | 11.11° C | 96% | 1009.5 hPa | 3.05 mm | - | 211 W/m² | - |
| 1778185476 | 11.11° C | 97% | 1009.5 hPa | 1.78 mm | - | 135 W/m² | - |
| 1778185172 | 10.56° C | 99% | 1010 hPa | 1.78 mm | - | 66 W/m² | - |
| 1778184867 | 10.56° C | 99% | 1009.7 hPa | 3.05 mm | - | 64 W/m² | - |
| 1778184565 | 10.56° C | 99% | 1009.6 hPa | 1.27 mm | - | 67 W/m² | - |
| 1778184260 | 10.56° C | 99% | 1009.5 hPa | 3.05 mm | - | 66 W/m² | - |
| 1778183956 | 10.56° C | 99% | 1009.5 hPa | 3.05 mm | - | 57 W/m² | - |
| 1778183654 | 10.56° C | 99% | 1009.5 hPa | 1.27 mm | - | 56 W/m² | - |
| 1778183351 | 10.56° C | 99% | 1009.3 hPa | 3.05 mm | - | 59 W/m² | - |
| 1778183048 | 10.56° C | 99% | 1009.6 hPa | 3.05 mm | - | 52 W/m² | - |
| 1778182744 | 10.56° C | 99% | 1009.5 hPa | 1.27 mm | - | 70 W/m² | - |
| 1778182441 | 10.56° C | 99% | 1009.5 hPa | 1.78 mm | - | 78 W/m² | - |
| 1778182137 | 10.56° C | 99% | 1009.6 hPa | 3.05 mm | - | 107 W/m² | - |
| 1778181833 | 11.11° C | 99% | 1009.6 hPa | 3.05 mm | - | 90 W/m² | - |
| 1778181530 | 11.11° C | 99% | 1009.9 hPa | 3.05 mm | - | 72 W/m² | - |
| 1778181226 | 11.11° C | 99% | 1009.7 hPa | 3.05 mm | - | 63 W/m² | - |
| 1778180923 | 11.11° C | 99% | 1010 hPa | 1.78 mm | - | 35 W/m² | - |
| 1778180621 | 11.11° C | 99% | 1010.2 hPa | 3.05 mm | - | 43 W/m² | - |
| 1778180320 | 11.11° C | 99% | 1010.2 hPa | 3.05 mm | - | 48 W/m² | - |
| 1778180017 | 11.11° C | 99% | 1010 hPa | 3.56 mm | - | 65 W/m² | - |
| 1778179714 | 11.11° C | 99% | 1010.5 hPa | 3.05 mm | - | 76 W/m² | - |
| 1778179412 | 11.11° C | 99% | 1010.6 hPa | 3.05 mm | - | 76 W/m² | - |
* Rain latest hour (hover to see other rain measurements)
** Current wind speed in m/s (hover to see current wind gust speed)